TimeMDT,TemperatureF,Dew PointF,Humidity,Sea Level PressureIn,VisibilityMPH,Wind Direction,Wind SpeedMPH,Gust SpeedMPH,PrecipitationIn,Events,Conditions,WindDirDegrees,DateUTC
12:20 AM,59.0,57.2,94,30.37,6.0,North,4.6,-,0.05,Rain,Light Rain,10,2013-08-03 06:20:00
12:53 AM,59.0,57.0,93,30.08,8.0,NE,5.8,-,0.09,Rain,Rain,40,2013-08-03 06:53:00
1:53 AM,57.9,55.9,93,30.07,10.0,NW,4.6,-,0.02,,Overcast,320,2013-08-03 07:53:00
2:53 AM,57.0,55.9,96,30.04,10.0,East,5.8,-,0.00,,Mostly Cloudy,100,2013-08-03 08:53:00
3:53 AM,57.0,55.9,96,30.04,10.0,Calm,Calm,-,N/A,,Clear,0,2013-08-03 09:53:00
4:53 AM,57.0,55.9,96,30.05,10.0,Calm,Calm,-,N/A,,Clear,0,2013-08-03 10:53:00
5:53 AM,57.0,55.0,93,30.07,10.0,Calm,Calm,-,N/A,,Clear,0,2013-08-03 11:53:00
6:53 AM,55.9,54.0,93,30.08,10.0,NE,3.5,-,N/A,,Clear,50,2013-08-03 12:53:00
7:53 AM,60.1,55.0,83,30.07,10.0,Calm,Calm,-,N/A,,Clear,0,2013-08-03 13:53:00
8:53 AM,61.0,55.0,81,30.07,10.0,SW,3.5,-,N/A,,Overcast,220,2013-08-03 14:53:00
9:53 AM,64.0,55.9,75,30.09,10.0,South,3.5,-,N/A,,Overcast,190,2013-08-03 15:53:00
10:53 AM,69.1,60.1,73,30.10,10.0,East,10.4,-,N/A,,Partly Cloudy,80,2013-08-03 16:53:00
11:53 AM,72.0,59.0,64,30.07,10.0,Variable,5.8,-,N/A,,Clear,0,2013-08-03 17:53:00
12:53 PM,77.0,57.0,50,30.04,10.0,Variable,5.8,-,N/A,,Clear,0,2013-08-03 18:53:00
1:53 PM,79.0,53.1,40,30.01,10.0,SSE,5.8,-,N/A,,Clear,160,2013-08-03 19:53:00
2:53 PM,79.0,53.1,40,30.00,10.0,SW,5.8,-,N/A,,Clear,220,2013-08-03 20:53:00
3:26 PM,80.6,51.8,37,30.25,10.0,West,6.9,-,N/A,Thunderstorm,Partly Cloudy,260,2013-08-03 21:26:00
3:53 PM,79.0,50.0,36,30.00,10.0,WNW,16.1,20.7,N/A,Thunderstorm,Overcast,300,2013-08-03 21:53:00
4:06 PM,77.0,51.8,41,30.25,10.0,NW,16.1,24.2,N/A,,Overcast,310,2013-08-03 22:06:00
4:53 PM,79.0,51.1,38,29.99,10.0,WNW,13.8,-,N/A,,Clear,300,2013-08-03 22:53:00
5:53 PM,81.0,51.1,35,29.97,10.0,NW,13.8,-,N/A,,Clear,320,2013-08-03 23:53:00
6:53 PM,79.0,50.0,36,29.98,10.0,NNW,8.1,-,N/A,,Clear,330,2013-08-04 00:53:00
7:53 PM,75.0,52.0,44,29.98,10.0,North,10.4,-,N/A,,Clear,350,2013-08-04 01:53:00
8:53 PM,71.1,51.1,49,30.02,10.0,North,10.4,-,N/A,,Clear,360,2013-08-04 02:53:00
9:53 PM,69.1,50.0,51,30.04,10.0,North,5.8,-,N/A,,Clear,10,2013-08-04 03:53:00
10:53 PM,64.9,51.1,61,30.05,10.0,Calm,Calm,-,N/A,,Clear,0,2013-08-04 04:53:00
11:53 PM,63.0,51.1,65,30.04,10.0,North,3.5,-,N/A,,Clear,350,2013-08-04 05:53:00